Weather reports worldwide

Advertisment
Beirut, Lebanon (40100): temperature & dewpoint: 17.05.2018 04:00:00 - 23.05.2018 04:00:00 (EEST)Beirut, Lebanon (40100): wind speed: 17.05.2018 04:00:00 - 23.05.2018 04:00:00 (EEST)Beirut, Lebanon (40100): wind direction: 17.05.2018 04:00:00 - 23.05.2018 04:00:00 (EEST)Beirut, Lebanon (40100): reduced air pressure: 17.05.2018 04:00:00 - 23.05.2018 04:00:00 (EEST)Beirut, Lebanon (40100): visibility: 17.05.2018 04:00:00 - 23.05.2018 04:00:00 (EEST)
Date & Time tt [°C] td [°C] ff [km/h] ff [kn] dd ppp [hPa] vv [km]
23.05.2018 04:00:00 - - - - - - -
23.05.2018 03:00:00 25,6 20,7 9 5 NW 1012,2 10
23.05.2018 02:00:00 - - - - - - -
23.05.2018 01:00:00 - - - - - - -
23.05.2018 00:00:00 27,9 13,7 5 3 SSW 1012,2 10
22.05.2018 23:00:00 - - - - - - -
22.05.2018 22:00:00 - - - - - - -
22.05.2018 21:00:00 29,0 15,0 2 1 - 1012,6 10
22.05.2018 20:00:00 - - - - - - -
22.05.2018 19:00:00 - - - - - - -
22.05.2018 18:00:00 30,1 16,4 4 2 - 1013,1 10
22.05.2018 17:00:00 - - - - - - -
22.05.2018 16:00:00 - - - - - - -
22.05.2018 15:00:00 32,9 15,7 4 2 - 1015,3 10
22.05.2018 14:00:00 - - - - - - -
22.05.2018 13:00:00 - - - - - - -
22.05.2018 12:00:00 28,9 17,6 16 9 NNW 1015,9 10
22.05.2018 11:00:00 - - - - - - -
22.05.2018 10:00:00 - - - - - - -
22.05.2018 09:00:00 29,1 12,8 9 5 ENE 1015,8 10
22.05.2018 08:00:00 - - - - - - -
22.05.2018 07:00:00 - - - - - - -
22.05.2018 06:00:00 26,3 13,6 9 5 ENE 1013,3 10
22.05.2018 05:00:00 - - - - - - -
22.05.2018 04:00:00 - - - - - - -
22.05.2018 03:00:00 26,1 13,8 9 5 E 1013,8 10
22.05.2018 02:00:00 - - - - - - -
22.05.2018 01:00:00 - - - - - - -
22.05.2018 00:00:00 23,8 21,5 2 1 W 1014,5 10
21.05.2018 23:00:00 - - - - - - -
21.05.2018 22:00:00 - - - - - - -
21.05.2018 21:00:00 24,2 20,6 2 1 - 1014,4 10
21.05.2018 20:00:00 - - - - - - -
21.05.2018 19:00:00 - - - - - - -
21.05.2018 18:00:00 25,6 22,2 11 6 WSW 1013,8 20
21.05.2018 17:00:00 - - - - - - -
21.05.2018 16:00:00 - - - - - - -
21.05.2018 15:00:00 26,9 20,6 13 7 WSW 1014,2 10
21.05.2018 14:00:00 - - - - - - -
21.05.2018 13:00:00 - - - - - - -
21.05.2018 12:00:00 25,9 22,1 21 11 SW 1014,7 10
21.05.2018 11:00:00 - - - - - - -
21.05.2018 10:00:00 - - - - - - -
21.05.2018 09:00:00 25,8 18,9 18 10 SW 1014,5 10
21.05.2018 08:00:00 - - - - - - -
21.05.2018 07:00:00 - - - - - - -
21.05.2018 06:00:00 23,1 13,1 5 3 - 1012,7 10
21.05.2018 05:00:00 - - - - - - -
21.05.2018 04:00:00 - - - - - - -
21.05.2018 03:00:00 24,2 16,3 2 1 - 1011,9 20
21.05.2018 02:00:00 - - - - - - -
21.05.2018 01:00:00 - - - - - - -
21.05.2018 00:00:00 27,4 13,6 8 4 ESE 1011,8 10
20.05.2018 23:00:00 - - - - - - -
20.05.2018 22:00:00 - - - - - - -
20.05.2018 21:00:00 27,7 14,6 2 1 - 1011,3 30
20.05.2018 20:00:00 - - - - - - -
20.05.2018 19:00:00 - - - - - - -
20.05.2018 18:00:00 27,2 19,9 8 4 - 1010,8 20
20.05.2018 17:00:00 - - - - - - -
20.05.2018 16:00:00 - - - - - - -
20.05.2018 15:00:00 30,6 17,6 11 6 - 1011,6 20
20.05.2018 14:00:00 - - - - - - -
20.05.2018 13:00:00 - - - - - - -
20.05.2018 12:00:00 27,5 19,5 11 6 WSW 1012,0 10
20.05.2018 11:00:00 - - - - - - -
20.05.2018 10:00:00 - - - - - - -
20.05.2018 09:00:00 25,9 17,2 11 6 SW 1011,4 10
20.05.2018 08:00:00 - - - - - - -
20.05.2018 07:00:00 - - - - - - -
20.05.2018 06:00:00 23,0 18,4 4 2 - 1010,1 10
20.05.2018 05:00:00 - - - - - - -
20.05.2018 04:00:00 - - - - - - -
20.05.2018 03:00:00 24,9 17,0 4 2 - 1010,0 10
20.05.2018 02:00:00 - - - - - - -
20.05.2018 01:00:00 - - - - - - -
20.05.2018 00:00:00 26,2 18,0 4 2 - 1010,6 20
19.05.2018 23:00:00 - - - - - - -
19.05.2018 22:00:00 - - - - - - -
19.05.2018 21:00:00 29,9 15,9 5 3 - 1010,7 10
19.05.2018 20:00:00 - - - - - - -
19.05.2018 19:00:00 - - - - - - -
19.05.2018 18:00:00 30,9 16,4 11 6 NNW 1010,4 20
19.05.2018 17:00:00 - - - - - - -
19.05.2018 16:00:00 - - - - - - -
19.05.2018 15:00:00 35,4 10,9 16 9 - 1010,7 20
19.05.2018 14:00:00 - - - - - - -
19.05.2018 13:00:00 - - - - - - -
19.05.2018 12:00:00 31,2 14,2 18 10 NNW 1010,8 20
19.05.2018 11:00:00 - - - - - - -
19.05.2018 10:00:00 - - - - - - -
19.05.2018 09:00:00 32,3 9,5 4 2 - 1011,0 20
19.05.2018 08:00:00 - - - - - - -
19.05.2018 07:00:00 - - - - - - -
19.05.2018 06:00:00 24,2 16,3 5 3 S 1010,4 20
19.05.2018 05:00:00 - - - - - - -
19.05.2018 04:00:00 - - - - - - -
19.05.2018 03:00:00 28,2 9,3 4 2 - 1009,9 20
19.05.2018 02:00:00 - - - - - - -
19.05.2018 01:00:00 - - - - - - -
19.05.2018 00:00:00 29,5 11,8 5 3 E 1010,3 10
18.05.2018 23:00:00 - - - - - - -
18.05.2018 22:00:00 - - - - - - -
18.05.2018 21:00:00 31,9 10,9 5 3 - 1010,3 20
18.05.2018 20:00:00 - - - - - - -
18.05.2018 19:00:00 - - - - - - -
18.05.2018 18:00:00 33,6 8,0 21 11 N 1010,6 30
18.05.2018 17:00:00 - - - - - - -
18.05.2018 16:00:00 - - - - - - -
18.05.2018 15:00:00 34,0 7,5 18 10 - 1011,7 20
18.05.2018 14:00:00 - - - - - - -
18.05.2018 13:00:00 - - - - - - -
18.05.2018 12:00:00 31,0 12,2 8 4 - 1012,8 30
18.05.2018 11:00:00 - - - - - - -
18.05.2018 10:00:00 - - - - - - -
18.05.2018 09:00:00 27,8 19,7 5 3 - 1012,3 10
18.05.2018 08:00:00 - - - - - - -
18.05.2018 07:00:00 - - - - - - -
18.05.2018 06:00:00 28,1 7,1 9 5 - 1011,1 20
18.05.2018 05:00:00 - - - - - - -
18.05.2018 04:00:00 - - - - - - -
18.05.2018 03:00:00 23,1 12,0 5 3 - 1011,2 10
18.05.2018 02:00:00 - - - - - - -
18.05.2018 01:00:00 - - - - - - -
18.05.2018 00:00:00 27,4 10,0 5 3 ENE 1011,9 20
17.05.2018 23:00:00 - - - - - - -
17.05.2018 22:00:00 - - - - - - -
17.05.2018 21:00:00 28,5 14,9 13 7 NNE 1012,5 20
17.05.2018 20:00:00 - - - - - - -
17.05.2018 19:00:00 - - - - - - -
17.05.2018 18:00:00 31,6 11,2 16 9 - 1012,6 20
17.05.2018 17:00:00 - - - - - - -
17.05.2018 16:00:00 - - - - - - -
17.05.2018 15:00:00 32,9 11,8 15 8 - 1013,3 20
17.05.2018 14:00:00 - - - - - - -
17.05.2018 13:00:00 - - - - - - -
17.05.2018 12:00:00 31,3 16,0 9 5 - 1014,2 10
17.05.2018 11:00:00 - - - - - - -
17.05.2018 10:00:00 - - - - - - -
17.05.2018 09:00:00 24,0 16,1 5 3 - 1014,5 10
17.05.2018 08:00:00 - - - - - - -
17.05.2018 07:00:00 - - - - - - -
17.05.2018 06:00:00 21,2 11,4 8 4 E 1013,8 20
17.05.2018 05:00:00 - - - - - - -
17.05.2018 04:00:00 - - - - - - -

tt = temperature
td = dewpoint
ff = wind speed
dd = wind direction
ppp = reduced air pressure
vv = visibility

Next stations